Weather Roundup
Issued by NWS Chicago, IL

Home | Current Version | Previous Version | Text Only | Print | Product List | Glossary Off
Versions: 1 2 3 4 5 6 7 8 9 10 11 12 13 14 15 16 17 18 19 20 21 22 23 24 25 26 27 28 29 30 31 32 33 34 35 36 37 38 39 40 41 42 43 44 45 46 47 48 49 50

000
NZUS59 KLOT 272306
HRRLOT

CHICAGO AREA WEATHER ROUNDUP
NATIONAL WEATHER SERVICE CHICAGO/ROMEOVILLE IL
600 PM CDT SUN JUL 27 2014

NOTE: "FAIR" INDICATES FEW OR NO CLOUDS BELOW 12,000 FEET WITH NO
SIGNIFICANT WEATHER AND/OR OBSTRUCTIONS TO VISIBILITY.

* THESE STATIONS ARE NOT UNDER NWS QUALITY CONTROL. THEY ALSO MAY NOT
  REPORT WEATHER SUCH AS PRECIPITATION OR FOG.

ILZ005-006-012>014-019>023-280000-
NORTHEAST ILLINOIS

CITY           SKY/WX    TMP DP  RH WIND       PRES   REMARKS
OHARE          PTSUNNY   78  54  43 W25G36    29.77R
MIDWAY         PTSUNNY   79  55  43 NW22G33   29.76R
AURORA         PTSUNNY   75  55  49 NW17G28   29.81R
LANSING*       MOSUNNY   78  54  42 NW21G30   29.75R
JOLIET*        MOSUNNY   77  53  43 NW13G24   29.80R
WAUKEGAN       MOSUNNY   73  57  57 NW9G21    29.76R
DUPAGE AIRPORT CLOUDY    74  55  51 NW20G33   29.79R
WHEELING       MOSUNNY   78  57  48 NW18G30   29.77R
KANKAKEE*      MOSUNNY   77  58  51 W17G26    29.79R
MORRIS*        MOSUNNY   78  57  48 NW23G29   29.80R
LEWIS AIRPORT* PTSUNNY   76  54  46 NW18G32   29.79R
NORTHERLY IS     N/A     78  53  41 W20         N/A
$$

WIZ051-052-058>065-066-070>072-280000-
SOUTHEAST WISCONSIN

CITY           SKY/WX    TMP DP  RH WIND       PRES   REMARKS
MILWAUKEE      PTSUNNY   69  62  78 NW12      29.77R
KENOSHA*       PTSUNNY   73  60  63 NW13G23   29.77R
RACINE*        CLOUDY    70  59  68 N12       29.78R
BURLINGTON     SUNNY     73  56  56 NW13G18   29.78R
WEST BEND      PTSUNNY   68  59  73 NW12G22   29.78R
$$

INZ001>003-010>013-019-020-280000-
NORTHWEST INDIANA

CITY           SKY/WX    TMP DP  RH WIND       PRES   REMARKS
GARY*          PTSUNNY   79  54  41 W23G39    29.76R
MICHIGAN CITY* NOT AVBL
RENSSELAER*    NOT AVBL
VALPARAISO     PTSUNNY   72  57  59 N10G24    29.76R
$$

LMZ740>746-280000-
SOUTHERN LAKE MICHIGAN

STATION/POSITION TIME  SKY/WX   TEMP WIND        PRES    VSBY
                                AIR  DIR/SP/G
                 (UTC)          (F)  (DEG/KT/KT) (MB)    (MI)
HARRISON CRIB    2300            74  310/ 24/ 30   N/A
BURNHAM HARBOR   2300            77  300/  8/ 22   N/A
CALUMET HARBOR   2200            79  290/ 16/ 21 1006.1R
BURNS HARBOR     2300            70  350/ 14/ 19 1008.1R
MICHIGAN CITY    2300            69  330/ 20/ 24   N/A
$$

ABBREVIATIONS USED IN REMARKS
   TC - TEMPERATURE IN CELSIUS
  WCI - WIND CHILL INDEX
   HX - HEAT INDEX
  VSB - VISIBILITY
$$


USA.gov is the U.S. government's official web portal to all federal, state and local government web resources and services.